Wind_Gust
23 23 23 23 23 23 23 23 23 23 23 22 22 22 22 21 21 21 20 20 21 22 22 22 22 22 22 22 23 20 19 10 10 8 8 14 11 10 10 10 7 5 3 4 9 13 11 9 11 10 13 4 9 5 10 8 7 7 9 11 6 7 7 7 6 11 4 5 7 10 7 12 8 12 11 14 23 22 22 26 22 23 20 17 12 12 10 9
24 24 24 23 23 24 23 23 23 23 22 22 22 22 22 22 21 21 21 20 20 21 21 21 21 20 20 20 21 18 16 5 7 6 16 13 8 11 9 7 7 6 5 6 6 5 7 13 9 12 12 6 4 7 3 8 7 9 6 7 9 8 8 8 5 6 5 3 3 6 5 5 5 8 8 18 8 16 22 20 22 22 17 13 13 11 12 13
23 24 24 23 24 24 24 23 23 23 23 23 23 22 22 22 22 22 21 20 20 20 20 21 20 19 19 18 16 14 12 6 3 5 13 10 12 9 10 7 7 7 2 3 2 3 4 8 11 9 8 7 7 9 3 12 8 6 11 3 8 12 4 7 6 6 5 6 5 5 8 5 6 5 4 12 9 9 20 19 13 18 14 13 11 10 12 16
25 25 25 25 25 25 25 24 23 23 23 23 23 22 22 22 23 22 21 20 20 20 20 21 20 18 18 17 15 12 3 4 4 8 8 9 10 11 10 9 7 7 5 3 5 4 5 8 8 7 7 9 9 5 6 10 7 6 10 6 8 9 7 5 5 7 6 5 3 3 4 8 12 5 9 15 14 6 7 11 19 16 17 14 8 10 11 13
26 26 26 26 25 25 25 24 24 24 24 23 23 23 23 22 23 22 22 20 20 20 19 20 19 19 17 16 15 5 5 12 7 5 16 9 12 12 10 9 9 5 3 3 6 4 4 7 8 5 7 10 6 5 8 7 6 10 7 8 7 4 3 8 9 7 6 3 9 3 8 4 6 14 11 15 14 11 14 12 19 18 17 16 12 10 11 13
26 26 26 26 25 25 26 25 25 24 24 24 24 24 23 23 23 22 21 20 20 20 19 19 19 18 17 15 6 5 6 10 7 8 9 12 13 11 9 9 9 6 4 7 6 12 8 10 7 6 7 6 8 6 8 6 7 5 4 3 8 6 7 5 5 7 5 4 5 3 2 4 10 9 7 11 13 10 15 15 18 16 14 12 10 11 15 14
26 27 27 26 26 27 27 27 28 28 26 25 24 24 23 23 23 22 20 20 19 19 19 19 18 19 19 17 6 6 5 17 4 15 8 12 11 9 11 8 9 5 3 8 8 10 5 9 8 3 5 11 7 15 8 6 6 10 5 4 4 4 6 6 5 7 5 9 4 5 3 10 10 12 9 15 7 18 20 20 19 16 14 14 18 13 13 12
28 27 27 26 26 27 27 29 28 28 26 25 24 24 24 24 24 22 19 19 19 18 18 18 17 15 15 7 6 9 4 11 14 9 10 10 11 11 10 8 6 3 4 6 7 13 7 8 8 7 11 9 6 7 11 10 9 5 5 4 3 3 4 4 5 4 5 6 6 9 13 6 10 13 9 10 14 18 19 19 19 18 16 16 17 15 11 13
29 28 28 27 28 28 30 30 29 28 27 25 24 25 24 24 23 22 19 18 18 17 16 15 14 12 6 3 7 8 8 9 9 10 9 8 10 10 7 9 6 4 5 10 7 12 6 6 6 7 4 8 9 10 13 9 10 4 4 3 4 6 6 3 8 4 6 6 7 18 19 17 22 25 18 10 12 17 24 22 20 18 17 15 15 13 13 11
30 29 30 30 29 30 31 31 29 28 26 26 26 25 24 23 22 21 19 17 17 16 15 14 12 11 5 5 7 11 11 8 7 9 12 11 9 7 8 11 9 6 6 8 9 5 7 6 3 4 7 5 8 7 7 9 8 7 5 3 6 7 6 9 6 5 6 8 10 16 10 5 10 11 10 10 21 26 25 24 18 20 19 14 14 13 11 11
30 30 31 31 31 32 32 30 29 28 28 27 25 25 24 23 22 21 18 16 16 16 14 12 10 9 4 5 9 8 11 8 6 7 12 10 7 10 8 8 7 5 6 8 7 3 4 5 4 6 10 8 7 11 8 7 5 5 4 5 12 12 9 8 8 9 7 9 7 18 9 7 13 13 23 15 14 28 25 19 18 17 16 15 14 13 10 10
30 30 31 32 32 33 33 31 31 29 30 28 26 25 23 23 22 21 18 14 15 14 12 11 9 4 3 4 6 16 7 7 7 9 11 10 8 15 12 10 6 8 4 6 9 7 4 4 7 9 8 4 7 5 6 8 7 6 7 7 7 11 13 13 6 6 5 5 10 8 16 18 17 8 15 17 17 23 24 21 20 19 17 13 12 12 10 9
30 30 32 32 34 34 33 33 32 32 30 28 25 23 23 23 22 21 17 13 10 11 12 8 5 4 5 10 14 13 7 10 7 10 9 11 11 10 10 8 7 8 8 6 7 6 5 3 4 8 4 5 4 8 8 8 8 4 10 6 10 14 9 8 9 7 7 6 9 14 9 13 8 8 18 21 25 22 22 19 17 17 15 13 10 10 10 9
30 31 31 33 34 33 34 35 35 33 27 26 25 24 23 23 21 20 16 13 11 11 8 4 4 4 4 11 16 8 7 5 6 11 15 11 5 11 12 11 9 7 6 7 9 8 7 3 3 3 3 2 8 5 11 12 10 7 7 11 6 9 9 11 8 10 7 6 8 20 16 17 20 13 10 17 26 25 21 17 16 16 14 13 11 12 14 13
31 31 32 33 33 29 35 37 37 30 26 26 26 25 24 24 22 19 16 9 8 8 4 5 3 4 7 17 10 13 14 7 9 12 17 10 10 8 10 11 12 12 10 8 9 4 4 5 4 6 7 2 3 6 10 9 11 9 12 11 10 9 12 14 8 7 6 6 8 16 9 16 17 14 13 10 19 23 20 16 16 15 14 14 12 13 14 12
32 32 33 31 29 29 33 37 34 30 29 27 27 28 25 18 18 16 13 9 7 6 4 2 4 7 4 14 8 12 8 5 7 15 10 12 9 10 8 6 7 10 5 8 8 5 5 6 10 7 6 9 14 9 10 10 10 10 10 4 8 3 7 14 5 6 5 4 10 10 10 8 6 12 18 13 22 21 20 18 16 16 15 14 12 12 11 11
33 32 31 29 29 30 31 33 29 32 30 27 29 30 20 13 11 11 10 6 4 7 4 5 2 3 5 9 9 7 8 11 6 4 6 12 12 8 3 7 5 8 8 6 8 6 7 6 7 6 11 12 5 9 10 11 9 9 6 5 4 4 5 8 14 7 10 10 7 13 15 6 6 10 12 11 21 20 19 15 15 14 12 11 12 12 11 10
32 31 28 29 29 30 31 29 30 30 30 29 24 23 27 16 11 14 11 6 5 7 3 4 5 6 15 9 7 8 8 11 10 7 4 5 11 5 3 6 4 4 7 10 9 9 6 7 11 7 7 8 7 10 13 5 7 5 5 4 8 3 3 7 5 6 8 14 16 15 17 11 11 11 12 13 13 19 17 16 15 15 12 12 11 10 10 9
30 29 29 29 30 31 29 29 30 30 29 28 22 18 11 9 6 4 8 4 6 9 10 6 8 6 7 10 11 12 11 11 7 5 4 5 5 5 4 2 7 5 8 8 11 6 9 8 12 11 6 8 5 11 11 7 9 9 9 8 5 4 4 4 7 6 8 11 17 17 17 13 11 17 19 14 14 19 15 13 13 13 13 11 10 9 10 11
30 29 29 29 30 31 31 29 28 28 26 19 21 16 11 18 17 9 13 5 6 9 11 9 7 8 10 15 11 10 9 6 5 6 4 4 7 4 6 7 7 13 8 10 10 8 8 9 4 10 12 12 7 9 5 4 10 6 7 8 5 5 5 6 6 5 6 12 10 10 17 13 10 11 14 15 11 18 17 17 15 11 13 11 9 9 10 11
31 30 30 28 31 30 30 30 29 27 18 4 6 16 12 11 10 16 20 16 10 7 10 14 13 13 17 10 12 11 12 7 5 4 5 3 8 4 7 7 11 10 7 10 13 7 13 11 5 10 10 8 5 5 7 12 10 9 8 7 5 3 3 4 3 3 6 11 10 11 12 10 12 11 13 13 13 9 16 17 17 15 11 9 11 10 11 10
30 29 31 30 29 30 30 29 29 23 13 5 10 14 9 6 4 11 7 19 16 7 12 17 8 13 14 22 20 10 5 7 10 8 7 4 5 9 7 11 5 5 9 12 12 14 11 11 8 8 5 8 13 14 12 9 11 10 9 5 7 8 5 8 3 7 8 12 5 6 12 9 13 18 14 13 12 10 11 15 17 18 11 10 10 11 10 11
28 30 29 32 30 32 30 28 27 15 11 13 12 6 10 13 9 8 9 8 15 11 8 8 6 10 11 15 9 11 2 6 4 8 5 4 5 6 4 7 7 6 10 10 12 7 9 6 7 4 15 16 15 11 11 12 10 9 7 8 4 6 5 7 8 5 9 9 12 7 14 3 8 10 15 14 13 15 13 13 13 15 16 13 12 12 13 10
27 28 30 31 32 33 30 31 19 7 12 5 3 7 14 8 9 10 8 7 9 13 9 9 5 7 9 7 8 7 4 5 6 4 5 6 3 3 8 3 5 8 10 6 10 12 11 6 3 9 13 16 12 10 12 11 9 6 2 3 2 2 4 9 6 7 6 10 9 13 12 6 9 7 11 16 18 14 14 14 14 13 13 10 9 8 9 13
27 28 29 30 31 34 34 23 9 9 11 4 5 9 8 8 9 2 7 12 8 13 6 3 4 5 5 6 3 5 4 3 4 6 6 6 3 8 2 4 8 5 7 4 9 13 5 6 4 10 12 11 14 10 5 9 10 11 7 7 4 4 3 4 3 8 9 6 7 5 6 8 8 8 7 15 10 14 13 11 12 15 13 11 10 9 8 9
28 28 29 27 30 34 32 7 6 14 10 4 6 15 13 12 9 4 14 8 6 13 13 5 7 5 5 4 5 4 7 6 6 7 6 6 7 5 7 9 5 5 4 5 8 9 5 7 7 10 14 10 10 8 2 6 6 6 8 6 6 5 4 6 4 8 5 6 7 3 10 11 8 4 6 12 11 12 19 16 7 10 10 10 13 10 11 12
28 29 26 25 25 27 18 6 7 11 4 9 13 17 15 13 8 7 10 13 11 10 8 11 6 12 11 5 7 5 10 11 10 6 5 6 3 6 8 8 8 5 4 7 15 8 4 7 10 9 11 10 10 12 5 7 10 8 8 5 4 4 5 6 9 7 7 3 5 11 8 11 6 9 4 7 6 9 11 12 10 9 9 13 10 9 9 10
29 29 27 24 24 15 8 11 14 8 7 8 13 14 15 13 5 11 16 9 15 11 9 13 6 5 4 5 7 8 9 5 8 6 3 9 6 8 13 3 5 4 7 10 7 11 3 5 5 9 9 14 9 4 5 4 8 10 9 7 4 4 5 6 8 7 5 9 5 12 9 8 8 9 5 4 7 9 9 11 14 8 12 16 12 10 10 10
30 29 27 22 24 11 5 4 3 8 6 11 13 15 16 8 10 13 11 15 13 11 14 9 12 5 10 6 6 4 4 7 5 6 7 5 10 8 8 3 7 6 8 8 12 10 6 4 6 9 10 8 4 7 5 7 7 7 5 8 9 8 10 6 7 8 3 10 7 9 6 8 9 8 4 8 6 8 9 16 16 10 14 13 13 11 11 9
30 29 25 22 17 4 4 3 10 11 11 12 13 16 8 7 10 11 9 6 13 9 14 13 11 9 6 5 5 9 4 7 6 6 11 8 13 11 7 4 8 9 12 11 13 7 5 6 9 13 6 4 6 3 3 5 5 5 8 6 9 13 9 7 12 8 10 9 7 7 5 6 6 6 6 8 12 5 10 13 11 13 13 14 12 11 10 8
31 28 25 17 14 7 6 10 12 8 10 11 14 9 8 16 12 10 8 13 11 13 22 5 10 9 10 5 7 8 5 6 8 7 7 15 12 11 9 8 14 14 11 18 16 17 11 10 11 8 5 6 6 5 5 4 5 9 10 4 6 9 14 11 10 11 11 9 8 5 3 5 8 8 7 9 9 8 11 11 10 10 15 15 14 13 8 7
29 30 25 20 10 4 6 8 6 6 10 12 9 10 12 5 16 14 6 7 16 18 7 13 5 6 7 3 8 12 7 7 6 9 6 7 8 12 8 12 9 12 13 7 14 12 12 8 7 7 6 10 6 9 11 12 14 14 9 16 14 8 13 6 16 9 4 5 4 3 3 4 3 8 9 13 14 14 16 11 11 10 16 16 14 11 8 8
29 29 30 14 7 4 12 13 10 11 9 10 9 9 13 13 8 9 7 8 10 8 12 7 8 8 3 8 8 6 5 8 6 7 7 7 11 6 3 7 4 10 8 4 7 12 9 7 9 9 9 8 7 13 11 12 11 11 9 6 10 8 11 5 9 6 8 8 8 4 5 8 7 9 6 14 18 20 10 9 9 14 14 12 10 6 6 6
30 28 23 6 12 14 12 5 9 8 11 9 10 13 17 18 4 9 3 5 5 9 8 8 11 7 9 11 5 6 10 4 7 9 6 6 10 6 9 8 5 7 10 2 9 4 7 11 12 8 8 6 8 7 5 6 3 3 4 7 9 12 9 5 7 5 4 8 8 8 5 9 10 6 10 7 7 5 9 10 10 11 8 8 5 5 5 6
33 24 12 9 6 13 19 15 10 3 6 8 20 15 13 6 5 4 5 7 8 5 6 7 8 7 10 9 6 6 5 7 9 6 12 7 4 7 4 6 6 9 5 11 5 6 2 10 11 6 3 4 6 2 6 6 9 5 7 10 11 5 12 4 10 8 5 4 8 11 8 3 6 7 13 14 11 15 14 6 8 9 6 6 7 7 7 7
21 19 4 7 6 7 10 10 4 3 7 15 19 16 8 8 7 5 7 6 5 7 9 10 11 16 9 11 7 7 8 8 12 9 9 8 5 5 3 4 6 2 5 8 5 4 8 6 5 11 9 7 4 6 8 6 10 10 10 6 6 10 13 9 5 2 5 9 5 7 8 7 10 11 12 17 18 12 11 8 8 7 5 6 9 9 8 7
17 18 12 11 9 6 6 6 7 6 13 18 18 6 8 7 7 5 7 7 8 2 7 13 14 6 6 7 7 10 13 9 10 9 7 4 10 7 4 4 6 4 5 11 5 7 9 12 7 6 6 4 3 6 7 7 8 10 11 9 5 6 9 11 5 8 11 7 10 5 4 4 6 13 8 12 16 12 9 8 6 5 5 9 7 7 5 5
17 11 8 8 11 7 6 5 7 12 13 15 9 6 3 5 7 7 7 9 7 6 7 7 4 9 3 5 9 6 10 11 14 9 4 5 8 4 4 4 5 6 4 4 12 6 9 9 8 4 5 8 7 9 12 8 8 11 9 5 12 8 7 10 10 7 4 8 11 7 5 5 6 8 8 9 11 9 7 4 7 8 9 8 7 6 4 4
5 6 6 7 8 6 4 8 13 10 12 19 5 7 6 7 6 7 10 8 5 5 7 3 7 5 6 3 5 3 7 10 6 5 7 6 9 5 3 6 4 6 5 8 9 5 9 7 12 7 7 6 6 11 6 9 9 5 5 14 4 12 4 5 4 5 13 4 4 6 4 10 11 10 12 11 9 9 7 6 7 8 8 7 6 6 9 10
7 7 6 5 9 8 5 10 12 16 16 9 4 6 5 6 9 12 16 11 7 5 3 4 2 4 4 2 3 4 5 3 3 5 6 5 7 4 2 4 3 6 6 5 5 4 4 6 6 13 11 7 9 9 6 7 6 13 17 10 14 10 4 7 5 4 5 10 7 9 7 12 10 7 11 12 12 12 12 12 10 9 7 6 6 9 9 9
4 8 8 8 13 11 9 18 20 12 9 5 3 6 4 6 12 10 17 10 4 4 6 4 7 3 7 5 7 2 5 4 4 5 3 1 5 6 6 6 5 4 6 9 10 6 8 6 3 11 14 7 8 8 5 8 8 9 10 6 7 6 6 6 6 8 7 6 8 9 13 14 13 7 11 13 13 11 10 11 9 7 7 7 8 8 9 11
6 6 9 8 13 8 11 13 12 3 8 4 8 6 9 6 6 9 9 9 7 8 5 9 3 5 4 3 4 3 4 4 3 4 3 3 3 9 5 7 6 2 9 6 3 4 9 8 10 4 5 6 6 5 3 6 8 7 11 4 7 7 13 12 5 7 6 5 6 7 9 11 7 5 6 10 11 10 7 7 9 7 7 8 9 8 7 8
9 6 9 10 10 9 14 9 5 11 4 8 6 6 5 6 4 8 9 7 9 8 9 9 2 4 4 4 2 3 4 5 3 3 3 2 5 11 8 9 8 8 10 4 5 5 9 10 6 7 8 9 7 4 8 7 10 7 9 5 6 4 5 12 10 10 8 8 7 7 7 15 8 5 5 4 3 4 4 6 9 6 7 8 7 7 8 8
3 5 13 8 8 10 16 9 8 10 8 10 4 7 5 6 6 9 7 7 9 9 6 6 5 3 3 2 4 2 4 9 4 4 6 3 4 6 6 8 6 4 8 7 10 7 10 6 12 5 8 12 13 13 7 8 10 5 3 3 3 6 7 4 10 4 4 5 8 10 9 10 9 7 7 4 4 3 5 7 7 7 8 8 8 8 8 8
6 7 6 17 15 13 9 9 6 4 6 6 8 9 12 7 5 2 3 4 5 4 5 6 4 3 4 3 3 2 2 5 3 4 4 2 5 4 4 6 7 5 5 7 8 7 10 5 9 7 6 3 5 7 9 9 5 5 2 2 2 7 10 5 3 4 4 3 6 6 12 15 13 9 9 7 4 5 6 7 5 8 8 10 8 9 10 8
8 7 14 13 19 14 11 3 9 6 6 6 8 8 4 7 10 5 8 2 4 4 3 4 6 6 6 4 3 4 3 3 4 5 5 5 7 6 7 6 6 6 6 10 6 8 7 4 7 11 14 14 14 14 11 6 4 5 4 4 4 5 6 8 12 9 7 8 8 12 9 5 11 9 9 12 4 6 7 8 9 9 9 7 7 8 8 7
7 10 6 10 14 14 5 10 9 9 12 4 7 6 5 3 7 9 6 6 6 7 8 6 4 8 7 5 2 2 2 1 6 3 2 2 4 6 8 7 5 7 12 9 6 12 7 6 4 9 9 12 11 10 9 6 7 7 7 8 5 7 7 7 8 9 10 12 10 9 5 4 10 8 9 10 9 8 10 9 8 7 8 7 8 7 7 6
9 4 6 4 6 7 10 11 11 12 8 2 8 3 3 3 6 6 8 3 3 5 5 9 10 4 4 3 4 4 4 3 4 4 4 2 3 7 8 5 5 8 8 5 5 8 9 4 5 4 5 9 8 9 7 4 7 8 9 10 11 10 9 12 11 7 12 5 15 6 8 6 10 9 11 13 12 14 15 16 12 8 5 3 5 7 7 8
8 4 3 5 6 5 6 8 6 4 12 3 7 5 5 3 4 5 5 9 8 5 4 3 6 5 4 3 4 3 2 4 6 3 5 2 1 3 4 5 5 8 5 4 5 4 10 3 4 3 5 7 8 7 9 8 5 3 4 7 6 14 16 12 7 4 12 10 8 6 8 14 14 12 12 12 10 9 7 4 3 5 7 6 6 7 8 10
6 4 7 10 8 3 5 5 6 8 11 9 6 6 5 3 4 8 4 4 6 5 3 2 5 6 6 4 4 3 7 7 5 4 4 2 7 3 5 9 5 2 4 5 6 2 9 10 5 3 5 7 8 6 5 4 7 6 3 4 4 4 6 5 5 4 4 9 6 3 4 12 14 12 12 7 4 2 5 6 8 7 6 6 8 9 10 10
4 3 6 5 7 7 4 4 6 6 8 13 12 10 6 5 5 3 7 5 5 5 3 3 3 4 4 4 3 5 5 8 7 7 7 6 5 9 6 9 7 7 4 4 4 3 4 6 4 5 3 10 8 6 6 7 8 7 8 4 7 10 7 8 11 13 10 11 4 4 4 14 16 7 5 4 4 9 9 9 7 7 7 6 9 11 10 10
4 4 5 8 5 6 5 5 4 8 7 6 8 7 7 7 7 3 9 8 5 8 9 5 5 2 6 6 8 6 6 9 9 11 11 12 8 6 7 9 12 8 7 10 3 10 10 9 6 3 3 10 12 4 3 5 8 13 10 15 18 7 2 2 5 4 10 11 10 5 14 12 7 4 6 2 5 6 7 9 7 6 7 9 12 12 12 10
Wind_Speed
16 16 16 16 17 17 16 16 16 16 16 16 15 15 14 14 14 15 15 15 16 16 16 16 16 17 16 18 18 17 15 3 4 4 4 5 4 6 6 7 5 4 3 1 5 7 5 5 7 6 3 1 1 1 1 1 0 2 2 4 3 1 3 3 3 5 0 1 2 3 2 9 4 0 1 3 11 10 7 11 7 13 12 10 7 8 7 6
17 17 17 17 17 17 17 17 17 16 16 16 16 16 15 14 14 14 15 15 15 16 15 15 16 15 16 16 17 15 11 2 4 2 2 2 7 9 7 6 6 4 4 3 4 3 4 7 3 5 2 1 2 1 0 0 1 3 2 3 3 4 0 5 2 4 1 0 1 1 1 3 3 4 0 7 2 4 11 7 5 11 9 8 9 7 8 9
18 18 18 18 18 18 19 18 17 17 16 15 16 16 15 15 14 14 14 15 15 15 15 15 15 14 15 14 14 11 7 3 1 2 1 3 8 7 7 6 5 4 1 0 1 2 0 3 1 1 3 1 4 1 1 0 1 1 2 0 1 7 2 4 3 3 3 2 0 0 2 4 0 2 1 5 5 4 11 7 5 7 8 9 8 7 6 8
20 20 20 20 20 20 19 20 18 18 17 17 16 15 15 14 14 14 14 15 15 15 14 15 15 13 14 14 12 7 1 2 1 2 3 3 8 8 8 6 6 5 4 0 2 1 1 2 3 2 1 5 3 0 2 0 1 1 2 2 2 3 3 3 3 4 3 1 1 1 1 4 4 0 3 10 9 3 1 2 2 8 8 9 6 5 4 7
20 21 21 21 20 19 19 19 18 18 17 18 17 17 15 15 14 14 14 14 15 15 14 15 14 13 12 13 11 1 3 4 1 2 5 3 10 9 8 7 7 4 2 2 3 2 1 1 2 3 3 1 3 1 0 1 1 3 2 2 3 2 1 5 5 4 0 1 3 2 6 1 0 9 6 3 8 4 3 2 7 7 6 6 7 6 7 8
20 21 21 21 21 21 21 21 21 20 19 18 17 16 15 14 14 14 14 14 14 14 14 14 14 14 12 9 1 2 2 3 2 2 2 5 8 9 8 7 7 4 2 3 1 1 4 3 2 2 2 2 2 2 1 0 0 0 1 1 4 3 2 1 1 2 3 0 1 1 1 2 6 4 3 6 4 1 3 7 7 7 7 5 5 4 7 7
21 21 20 20 21 21 22 22 22 22 21 20 19 17 16 13 13 13 14 14 14 13 13 13 13 14 14 3 0 3 2 3 1 7 1 7 7 8 7 6 7 3 2 3 5 3 3 4 4 1 2 2 0 1 2 0 2 5 1 3 1 3 2 2 0 3 2 3 0 0 2 6 6 7 2 8 3 7 8 8 8 8 7 6 6 5 6 5
22 21 21 20 21 22 22 23 23 22 21 20 19 18 17 15 14 14 14 14 14 13 12 12 12 11 12 2 2 4 2 1 5 4 3 9 9 8 8 3 3 2 2 1 1 2 1 5 3 1 5 4 1 1 2 6 4 2 2 1 1 0 1 1 2 4 3 1 0 7 8 2 7 6 4 5 4 6 8 7 8 7 6 4 6 6 5 7
23 22 22 22 22 22 23 23 23 22 21 20 19 18 17 15 14 14 14 14 13 12 11 10 10 9 4 1 2 2 2 3 5 2 3 6 7 6 4 1 2 2 0 1 0 0 3 1 1 2 0 1 0 3 4 4 3 0 0 1 2 1 4 1 2 0 3 2 3 13 13 11 12 13 10 1 3 4 6 7 6 4 6 6 7 6 7 7
23 23 23 23 22 23 23 23 23 22 21 20 19 18 17 16 15 14 14 13 12 11 10 9 8 6 2 1 3 5 2 5 4 4 5 7 7 7 4 2 4 1 1 0 1 1 4 0 1 1 4 2 1 2 0 5 1 1 0 2 3 3 1 4 1 1 2 3 1 10 7 1 3 5 1 1 1 4 7 6 3 5 8 6 6 6 5 6
24 24 23 24 23 23 24 22 23 21 22 22 20 18 17 16 15 14 13 13 12 10 9 7 6 4 0 2 3 0 4 4 2 3 5 5 4 4 1 1 1 1 1 3 2 0 1 2 0 1 2 0 0 1 2 0 1 2 1 2 5 4 5 4 4 4 3 3 5 12 6 5 7 3 11 6 3 4 9 6 5 6 6 6 5 5 3 4
24 24 24 24 25 24 23 24 23 23 23 21 19 17 16 15 15 14 13 11 10 9 7 5 2 2 1 2 3 2 1 3 3 3 2 1 1 1 7 6 4 1 1 2 4 0 2 2 3 3 0 0 1 0 0 2 2 0 3 3 4 5 5 7 3 4 2 1 3 0 10 9 7 3 3 3 3 3 7 7 5 5 5 4 4 4 4 3
23 24 23 24 24 24 25 25 25 24 21 19 15 14 14 14 14 13 12 10 7 6 4 3 1 1 1 3 4 8 4 2 3 4 2 2 1 2 2 2 3 2 1 1 4 1 1 0 2 5 1 2 1 1 1 5 2 1 7 1 4 7 3 6 4 5 3 2 3 2 1 4 1 5 4 3 3 4 8 6 4 3 3 3 3 3 3 3
24 23 23 24 25 21 22 25 23 22 19 16 16 15 13 13 13 13 11 10 7 6 4 2 2 2 1 3 5 4 4 1 2 3 1 1 1 5 6 1 1 2 2 3 3 2 0 1 2 2 1 1 1 1 3 4 5 3 2 5 2 3 2 7 2 7 5 3 4 1 4 1 1 5 6 4 4 3 6 4 3 2 2 3 2 3 3 4
23 24 24 24 22 21 22 25 25 23 19 17 17 16 13 11 10 8 8 6 6 5 2 3 1 1 2 5 4 8 4 3 2 4 2 3 1 4 4 6 3 1 3 3 1 1 1 2 2 2 0 0 1 2 2 3 5 3 3 3 3 5 2 5 3 5 3 2 5 8 2 4 4 6 4 6 5 2 5 3 2 2 2 2 3 4 4 4
24 24 24 22 22 23 22 24 24 24 22 19 18 16 9 5 3 3 4 3 1 3 1 0 2 2 1 2 1 3 3 2 3 3 3 4 4 4 2 4 3 2 3 0 0 1 3 3 5 1 1 2 8 5 5 4 4 5 4 1 0 1 1 2 2 3 4 1 7 2 3 2 1 4 4 4 6 3 1 2 2 2 3 3 3 3 3 4
24 24 23 22 22 23 23 22 23 25 22 20 19 8 5 1 2 3 3 1 0 1 0 0 0 0 1 3 1 2 1 2 4 1 1 3 5 3 1 4 2 4 4 3 2 3 4 2 2 1 5 6 2 5 4 5 2 3 2 2 2 0 1 0 5 2 6 4 3 6 7 1 0 6 4 3 6 3 1 3 3 2 2 3 3 3 3 4
24 24 22 22 23 24 23 21 23 24 22 19 12 5 2 4 9 9 5 3 0 0 1 1 2 2 4 4 1 4 1 6 5 3 2 1 4 2 1 1 1 2 3 2 5 3 2 0 4 2 2 4 3 5 4 1 3 2 0 1 0 0 1 2 1 2 3 6 10 8 11 4 5 4 3 3 4 3 3 5 4 3 3 3 3 3 3 3
24 23 22 21 23 24 23 22 23 23 20 14 7 6 7 7 1 0 3 1 0 2 2 1 2 1 2 4 5 5 4 4 3 1 1 1 1 2 2 0 4 3 2 3 2 2 4 3 4 4 3 5 2 2 3 2 5 5 6 4 3 1 1 1 2 2 5 5 6 5 9 7 5 4 3 3 3 4 3 3 2 2 3 3 3 2 3 2
24 22 22 23 23 23 24 23 21 21 19 9 6 1 3 7 7 1 6 3 1 1 1 3 0 2 4 5 5 5 4 5 1 2 2 1 3 1 1 2 3 7 4 1 4 2 1 3 1 1 4 4 3 4 1 1 4 3 3 3 2 2 1 2 1 1 2 5 5 2 6 6 5 3 1 1 4 3 2 3 3 2 3 3 2 2 2 3
24 24 23 23 22 23 23 24 23 21 13 1 3 7 4 1 2 4 7 8 5 3 2 4 4 3 4 2 2 3 4 3 1 1 0 1 3 3 2 3 5 6 3 2 1 2 5 6 1 3 3 2 1 3 5 6 4 4 4 2 1 1 1 0 0 2 2 3 0 0 7 4 2 3 3 3 5 4 5 4 3 3 3 2 2 2 2 1
24 24 24 24 22 24 23 22 23 19 8 1 5 5 3 3 1 1 1 5 6 2 2 4 1 3 4 6 4 4 3 1 4 3 3 0 3 4 3 6 2 3 4 2 3 6 5 2 1 2 1 4 7 5 3 5 5 4 3 3 2 2 2 4 1 3 4 6 2 1 6 2 2 2 3 3 3 1 3 3 2 2 1 1 1 1 1 2
22 24 23 24 23 24 24 22 20 12 4 6 4 3 2 1 1 2 3 1 5 3 1 1 1 3 3 4 1 5 1 0 0 2 1 1 2 2 1 3 4 2 3 3 6 3 4 2 3 1 4 6 5 6 6 6 5 4 1 0 2 2 1 1 3 2 5 2 7 3 7 0 3 1 3 1 3 2 5 6 3 3 0 1 1 0 1 2
21 23 24 25 25 25 23 24 14 4 5 0 0 3 1 2 1 1 4 1 3 7 2 2 1 2 3 1 1 3 1 1 1 2 3 2 1 1 3 1 2 4 3 1 6 7 4 0 1 6 5 4 6 4 7 6 3 2 1 2 0 0 1 4 2 1 1 5 5 6 5 1 3 1 2 1 1 2 3 2 3 3 4 1 2 1 1 1
22 23 23 24 25 26 27 17 5 2 2 1 1 2 2 2 1 1 2 2 1 3 3 1 2 1 1 1 1 1 1 0 2 1 3 2 0 1 0 1 2 2 1 1 6 8 3 0 0 4 3 5 6 6 2 2 3 4 3 3 2 3 1 2 1 2 3 1 4 1 1 2 3 2 2 3 3 1 1 4 2 3 3 4 2 0 2 3
22 23 23 21 23 25 24 2 2 2 3 1 2 2 2 2 1 1 5 3 0 3 5 0 0 1 0 1 2 1 2 0 1 1 0 1 1 2 1 2 1 1 0 2 4 2 2 3 4 3 7 5 4 3 1 3 2 1 2 3 1 1 1 3 3 4 0 2 2 1 4 2 2 2 0 2 2 4 2 3 3 3 5 3 0 1 2 1
22 23 22 20 18 21 9 1 3 4 1 0 1 4 4 3 1 3 1 4 3 1 0 3 2 0 2 1 1 2 1 2 3 2 3 2 1 1 3 2 1 1 1 1 4 1 1 4 5 5 5 4 4 5 1 3 3 2 2 0 2 2 2 4 5 4 1 0 1 5 3 2 1 3 2 3 1 3 4 3 4 5 4 2 1 2 1 1
23 23 22 20 18 11 4 3 6 2 1 1 4 5 4 3 1 3 4 2 1 3 2 4 0 2 1 1 4 0 2 1 2 1 0 6 0 3 6 0 1 1 3 2 3 2 1 1 2 3 3 5 3 1 1 2 0 2 2 4 2 1 2 4 5 4 1 3 1 6 4 2 2 3 3 1 3 4 5 4 4 4 3 3 3 1 0 1
22 23 22 18 20 8 1 2 0 2 1 4 5 4 5 2 4 5 4 2 3 0 2 1 4 1 5 2 3 2 1 2 1 1 4 0 6 1 2 0 3 3 2 2 6 0 1 2 3 5 3 2 1 1 1 4 2 0 2 4 5 5 6 4 4 5 1 2 2 3 3 1 3 3 3 1 3 4 3 3 3 3 4 3 1 1 2 2
23 22 20 17 12 1 1 1 5 4 3 4 5 4 1 2 2 1 2 1 1 1 1 3 2 4 3 2 2 6 2 3 1 3 5 2 7 7 2 2 2 4 6 6 7 2 0 4 6 4 1 1 3 1 1 1 2 0 3 1 5 8 4 3 6 3 3 1 2 2 1 1 1 1 1 1 1 0 3 0 1 3 3 2 1 2 3 3
24 21 20 13 4 2 2 4 5 3 5 4 4 2 2 7 3 4 1 2 0 2 1 2 2 5 5 3 2 4 2 3 4 3 2 7 6 5 3 1 5 5 5 7 4 7 4 3 2 1 1 2 2 1 1 2 2 4 3 1 2 1 7 4 4 5 2 2 2 2 1 2 2 1 2 3 5 4 2 0 1 4 3 1 1 2 2 2
21 22 20 11 4 0 3 2 0 2 5 5 2 4 3 1 6 4 1 4 1 3 2 3 1 1 4 1 4 5 2 3 3 4 2 2 3 6 4 3 2 1 4 1 1 4 4 4 3 4 2 4 2 1 2 6 6 8 4 8 3 2 4 1 7 1 0 2 0 0 1 1 0 1 5 1 3 2 1 1 3 3 2 1 2 2 1 1
22 22 22 6 4 2 6 4 3 4 6 3 3 3 3 5 1 3 2 2 1 1 2 1 2 3 0 2 4 3 2 2 3 3 2 2 4 3 0 1 1 1 1 1 0 3 3 3 5 6 4 3 3 4 5 4 5 6 4 2 4 2 4 1 3 1 3 3 2 1 2 1 1 1 1 2 3 1 1 3 5 6 5 4 2 1 0 1
22 21 10 2 5 7 5 3 3 5 4 3 3 5 7 6 1 5 1 1 1 1 2 2 3 4 6 3 2 2 3 1 2 2 2 1 4 1 2 2 1 3 5 1 1 1 0 2 4 4 1 2 3 2 1 2 1 0 2 1 4 5 2 1 2 1 1 2 4 3 0 2 1 1 0 2 2 3 3 3 4 2 3 5 3 2 2 1
25 14 5 3 2 6 9 6 3 1 2 3 10 6 5 1 2 0 1 2 2 1 0 3 1 2 3 3 3 2 1 1 3 2 6 2 1 0 0 2 3 5 2 2 1 1 0 3 4 3 2 1 2 0 3 3 3 0 2 3 5 0 6 0 2 2 1 1 2 4 1 1 1 2 1 3 1 4 3 3 2 2 3 2 1 3 2 0
14 6 0 2 3 2 2 2 2 1 1 6 8 6 2 2 1 1 1 2 0 1 4 2 5 4 1 2 1 2 6 2 3 3 3 3 1 1 1 2 0 0 0 1 2 1 1 1 2 6 3 4 1 0 1 1 1 2 2 1 1 3 7 4 1 1 1 2 0 1 3 2 1 2 0 2 3 1 2 1 0 1 1 1 3 2 1 2
7 8 4 5 3 4 0 2 2 2 6 8 8 2 1 1 4 3 3 1 2 0 2 1 2 1 2 2 2 5 4 2 1 2 0 0 1 1 0 1 4 0 2 3 1 2 2 1 2 2 2 0 1 1 3 2 3 3 3 2 1 3 3 3 1 2 5 1 2 1 1 1 0 2 1 3 5 3 3 2 1 1 1 2 3 2 2 3
5 3 2 2 2 4 1 1 2 5 6 7 4 3 1 1 1 2 0 2 1 2 3 2 0 3 0 0 2 2 5 4 5 2 0 0 1 1 2 1 2 1 1 1 2 2 2 1 1 1 2 5 4 1 4 2 2 4 1 3 0 1 0 3 3 1 1 2 4 3 0 2 2 3 1 3 7 5 4 2 1 3 3 4 3 2 2 2
1 1 1 2 2 3 0 1 6 4 5 8 1 2 1 2 2 1 4 2 0 1 1 1 1 1 2 0 2 1 1 2 1 1 2 1 2 1 0 3 0 1 2 3 3 1 3 2 3 1 1 3 2 3 0 3 3 3 2 3 1 3 1 1 0 1 4 1 1 2 1 3 4 4 7 7 5 5 4 3 5 6 5 4 3 2 3 3
2 1 2 1 5 4 1 3 6 7 7 4 1 1 1 1 2 5 3 1 1 1 0 1 0 1 1 0 1 0 1 0 1 0 1 1 0 1 1 2 0 2 4 1 2 0 0 1 0 3 3 2 1 2 2 2 1 2 4 3 2 2 1 3 1 1 0 3 3 1 2 4 4 3 7 8 8 8 8 8 6 6 5 4 4 4 4 3
0 2 2 3 7 6 2 9 9 5 4 1 0 1 1 1 3 2 5 1 0 1 0 1 3 1 3 1 0 0 0 1 0 0 1 0 1 1 2 3 2 0 1 2 3 0 2 1 0 2 3 1 3 2 2 3 2 2 3 1 3 0 0 2 2 1 2 1 2 2 4 6 7 1 3 7 8 7 6 6 6 5 5 5 4 4 4 3
1 1 2 3 8 4 4 6 3 0 2 2 1 0 1 1 1 4 3 3 3 1 2 4 0 2 1 0 1 1 1 0 0 1 1 1 1 2 1 3 4 1 1 0 1 2 2 3 4 1 1 2 2 3 2 2 3 2 3 0 2 4 5 4 1 2 1 0 3 3 0 4 2 2 3 5 6 6 5 4 4 4 5 5 5 4 4 4
3 0 4 4 6 2 6 4 2 3 1 1 3 1 1 0 1 2 2 3 3 2 2 3 1 0 2 0 0 0 2 0 1 0 1 1 2 6 5 4 6 6 4 0 1 0 4 2 2 3 4 5 3 1 0 2 3 1 4 2 1 1 1 4 2 3 2 1 1 1 1 5 2 2 3 1 1 1 1 4 5 4 5 5 5 4 5 5
0 1 4 2 5 5 6 1 2 3 3 4 2 2 2 1 1 3 2 2 1 3 1 1 2 1 0 1 2 0 1 1 2 0 0 1 1 3 4 5 5 0 2 2 2 3 1 1 5 2 2 3 4 3 2 3 4 1 0 0 1 3 4 2 5 0 1 2 4 4 3 2 2 3 4 2 1 1 2 4 4 5 5 5 5 5 5 5
0 1 1 8 7 6 2 2 2 0 1 2 2 3 5 1 2 1 0 0 1 1 1 1 0 1 1 0 1 1 0 1 0 1 0 0 2 1 3 5 2 0 2 4 3 2 2 2 3 1 2 0 1 2 2 1 3 0 0 1 0 3 7 0 0 1 1 0 2 1 4 8 7 4 2 0 1 3 4 4 3 5 5 6 5 5 6 5
2 1 5 4 7 6 4 1 3 1 1 2 2 1 0 2 1 2 3 0 0 0 0 1 1 3 2 1 1 1 1 1 1 1 1 0 2 2 0 4 4 1 2 6 4 3 1 1 2 5 4 5 6 4 3 2 2 0 1 3 3 2 2 4 4 3 3 2 4 6 4 1 1 4 3 4 2 5 5 5 6 6 6 5 4 5 5 5
1 3 1 1 5 6 2 4 2 2 1 0 0 1 1 1 3 3 1 0 1 1 1 2 0 1 1 2 1 0 0 0 2 1 1 1 2 2 6 1 2 1 2 5 2 4 2 0 2 4 4 5 5 2 2 3 1 2 2 4 2 4 4 5 4 3 5 5 5 3 3 1 6 5 6 5 5 5 6 6 5 5 5 5 5 4 5 4
1 1 2 1 1 1 2 3 4 3 1 0 1 0 1 2 3 1 3 1 1 1 1 2 4 2 1 1 2 0 2 1 1 1 1 1 1 4 1 2 2 4 3 1 2 1 2 1 1 2 3 3 5 5 2 1 3 2 4 5 7 7 7 8 8 4 9 1 7 2 5 3 5 5 6 8 8 9 10 11 8 5 3 2 2 4 5 6
2 1 1 1 0 2 1 0 1 1 1 0 1 3 3 2 2 1 1 4 3 2 2 0 1 1 0 0 1 0 0 1 2 1 1 0 0 1 1 3 1 5 3 1 2 1 2 1 1 0 2 3 2 3 2 4 1 1 3 4 3 10 11 9 3 1 7 6 2 1 4 8 7 6 6 8 6 6 4 2 0 1 4 4 4 5 6 7
0 1 0 3 4 1 1 2 0 1 0 3 1 1 0 1 2 4 1 1 1 1 0 0 2 2 1 1 1 0 3 4 2 1 1 1 1 1 1 4 1 1 2 1 0 0 1 2 2 1 1 2 1 2 2 0 3 3 1 2 1 2 3 2 3 1 2 6 4 2 2 7 7 7 8 3 1 1 1 1 5 5 4 5 5 6 7 7
1 0 1 2 1 2 1 2 1 1 1 4 3 1 1 0 1 0 3 1 1 1 0 1 1 0 1 1 1 3 3 5 3 4 3 3 1 4 2 3 2 0 1 1 1 0 0 2 2 1 0 4 1 2 2 3 1 3 5 2 4 8 5 4 4 7 6 6 2 3 1 6 8 4 2 2 0 3 5 5 4 4 5 4 6 7 7 7
1 1 1 1 1 1 1 0 1 1 0 1 1 2 1 2 2 0 1 1 1 2 2 1 1 1 1 1 5 4 3 5 5 6 6 7 5 3 4 3 7 3 2 2 0 2 3 3 1 0 0 3 2 2 1 2 3 7 4 4 12 4 1 0 2 3 6 7 6 2 8 6 3 1 3 1 2 4 4 4 4 4 5 6 7 8 8 6
Wind_Direction
344 344 340 340 338 337 336 336 335 336 337 338 337 334 333 332 330 328 324 320 319 320 322 325 328 330 335 339 342 346 343 22 357 19 25 244 192 158 126 115 127 150 115 59 22 38 349 9 14 354 48 57 309 51 271 52 144 54 60 115 45 201 79 190 162 187 135 122 296 14 92 106 117 288 154 39 37 81 69 65 67 66 66 67 55 43 27 10
342 339 337 335 334 333 332 332 332 331 332 333 333 331 330 330 327 326 320 317 318 318 321 325 326 329 332 337 340 344 342 32 345 341 232 132 104 142 135 124 144 148 98 40 59 66 31 350 5 25 46 61 342 60 37 338 79 96 125 80 158 208 220 151 198 202 130 230 212 253 155 135 168 135 276 80 2 61 66 46 64 82 65 57 47 37 41 38
342 340 337 335 333 333 332 332 329 328 328 329 329 329 329 327 326 323 318 314 313 316 320 321 324 326 331 335 337 342 357 350 41 44 27 107 149 137 129 147 139 121 93 115 228 121 98 259 254 42 18 88 360 123 44 312 114 227 112 56 256 207 254 223 194 214 220 158 277 330 346 71 236 127 152 110 107 43 105 123 63 72 77 62 47 38 41 51
347 345 343 340 337 336 333 331 328 327 327 327 325 326 325 325 321 317 313 311 310 313 319 319 321 324 331 331 334 335 17 45 35 269 275 152 129 136 141 145 136 102 93 52 166 128 110 72 65 90 56 63 316 21 56 272 81 253 76 163 214 201 118 249 188 250 242 175 167 62 319 63 11 311 112 150 88 47 39 338 131 125 109 90 75 62 49 56
349 348 346 344 341 336 333 328 325 324 324 325 324 322 322 321 317 312 309 307 307 311 317 315 321 323 327 331 329 30 40 56 292 251 252 107 129 139 146 145 128 120 95 140 94 67 100 104 105 42 75 60 9 18 222 315 152 120 197 182 182 153 148 232 212 214 67 24 99 22 51 77 302 51 40 7 118 167 197 90 93 106 110 93 76 51 50 53
348 349 347 344 341 340 337 333 328 324 323 323 321 318 318 317 312 310 306 304 306 311 314 316 321 325 334 336 73 77 79 79 261 274 258 167 133 137 134 128 121 102 98 33 60 57 65 6 66 31 19 72 20 87 304 181 275 134 309 189 209 188 166 250 145 263 134 71 100 86 145 66 74 75 358 59 54 128 91 97 95 88 80 79 75 71 66 60
347 347 345 343 341 339 337 334 332 329 325 322 318 315 311 311 305 304 302 303 304 310 313 316 322 328 336 18 276 68 93 272 316 258 158 143 123 101 107 102 92 82 53 8 10 52 33 54 73 87 93 59 303 48 339 241 29 101 110 11 18 203 235 53 84 89 87 115 36 222 58 82 91 62 324 59 3 81 85 85 87 87 80 69 77 64 74 71
345 344 343 341 339 338 336 334 331 329 327 322 318 313 311 308 304 301 300 301 302 306 310 316 321 328 354 19 20 350 34 302 263 261 253 88 79 93 95 73 89 71 42 356 324 27 96 51 72 150 57 87 292 73 337 70 26 60 19 175 272 144 294 48 126 114 169 38 176 60 62 40 98 129 101 38 23 67 78 78 79 82 84 85 90 84 75 67
343 342 341 340 338 337 336 334 333 329 326 323 319 313 307 305 301 300 298 298 300 303 305 314 323 333 330 70 105 31 349 238 221 149 87 89 92 83 114 340 103 121 92 32 276 167 95 311 24 162 267 77 262 56 353 92 346 151 209 359 345 347 334 359 63 316 164 142 68 75 85 91 100 90 52 348 52 79 84 78 78 91 97 86 80 77 73 69
342 341 339 337 336 337 336 335 332 330 328 323 319 310 305 301 297 296 294 294 295 299 300 311 323 337 23 80 31 72 262 253 319 37 102 96 69 78 29 150 125 49 47 175 52 41 60 303 75 288 125 96 65 47 176 62 220 169 233 117 72 317 57 356 155 350 319 96 102 104 105 55 324 81 174 290 186 105 90 83 64 90 79 71 67 61 59 70
341 340 338 337 335 335 335 333 331 328 327 324 316 307 299 296 293 292 290 289 290 290 294 308 322 343 47 82 87 68 267 15 7 45 87 93 50 2 92 283 183 89 337 340 26 210 148 77 203 94 43 234 73 335 50 94 170 62 166 104 16 340 50 23 38 356 339 36 64 102 94 69 5 64 155 169 166 134 110 92 81 73 78 73 63 64 56 61
339 338 337 335 336 335 332 332 331 328 327 322 314 304 296 288 287 285 286 285 286 283 282 276 338 108 47 77 133 210 232 250 13 33 63 50 304 186 151 170 161 174 92 348 305 208 136 125 91 50 293 255 348 359 70 253 90 175 118 83 336 18 43 13 7 326 354 48 50 41 56 23 360 110 90 127 119 117 102 95 80 78 76 71 67 63 54 55
338 337 335 333 333 332 331 331 331 330 326 314 303 300 292 283 279 279 280 286 276 275 262 265 149 111 73 13 234 233 283 288 5 10 14 55 350 242 269 213 189 175 175 161 271 170 66 130 70 21 236 101 214 66 198 70 330 67 26 86 19 10 20 357 327 338 29 341 21 48 35 296 314 116 128 99 99 95 90 91 87 83 81 74 79 78 68 48
338 336 334 333 333 328 329 332 330 327 325 318 314 307 298 287 278 275 274 265 273 270 260 196 104 107 81 233 270 243 248 230 355 3 269 46 47 293 329 41 220 200 173 217 272 256 281 111 102 127 129 103 337 336 37 342 24 100 297 57 59 40 311 326 19 317 80 328 18 78 140 234 252 175 147 115 103 102 107 107 100 99 93 86 79 88 78 49
338 336 334 333 333 330 328 333 330 329 330 326 315 313 310 296 283 278 268 268 259 256 171 121 175 91 36 278 260 286 246 83 25 259 202 114 138 336 307 339 353 252 213 172 178 143 136 102 63 41 260 336 26 50 9 18 17 25 53 323 335 88 294 301 336 17 102 5 39 86 87 184 180 184 155 125 111 51 116 125 130 115 107 101 79 66 62 51
336 336 334 333 333 333 329 332 331 331 334 331 324 321 317 325 339 257 248 214 239 111 100 358 1 100 102 2 146 109 53 43 328 281 241 136 140 215 232 311 292 2 61 222 282 105 30 85 68 175 315 13 46 84 43 33 343 7 95 241 291 40 272 4 24 322 306 226 22 99 172 128 192 200 152 120 116 81 43 130 156 149 125 96 70 66 62 65
335 335 333 333 334 334 334 331 330 332 334 335 330 345 355 53 80 61 121 106 60 79 353 162 301 68 58 245 282 39 312 268 283 346 26 194 161 180 27 7 335 338 7 41 28 97 356 63 307 38 38 100 144 87 64 18 346 326 15 130 225 106 360 87 308 2 16 86 23 13 87 23 12 148 145 131 114 105 124 224 182 165 126 103 90 72 65 60
334 334 333 333 334 336 335 333 331 332 335 335 332 327 33 84 132 109 64 35 155 173 275 204 116 46 307 360 39 295 277 284 334 305 288 295 142 106 132 324 308 357 39 29 357 71 325 64 27 168 12 11 32 47 96 223 184 217 343 48 330 325 218 279 52 326 51 22 99 79 73 60 58 83 104 123 108 126 179 213 184 155 126 103 91 80 69 67
333 333 332 334 334 335 336 335 331 333 336 331 320 72 75 113 105 61 93 350 43 354 29 325 26 71 184 280 291 274 276 254 276 124 269 81 75 107 50 77 66 26 346 56 300 58 358 57 25 37 0 341 4 128 158 207 152 180 173 171 146 103 228 171 254 288 100 65 66 98 129 112 86 75 62 87 115 151 200 230 179 141 111 99 97 90 82 86
333 333 332 333 334 335 336 337 330 332 344 354 13 20 14 13 5 335 336 18 99 185 250 235 89 249 296 292 285 269 269 40 47 319 308 322 122 116 46 49 358 48 59 59 305 39 102 84 103 222 232 227 246 185 144 188 144 115 87 101 189 157 295 283 286 250 108 77 27 78 114 110 105 106 47 196 116 137 195 211 180 147 122 123 116 115 109 85
332 333 333 332 332 334 334 335 332 326 346 74 338 58 61 329 40 326 324 285 264 248 228 250 193 202 230 278 285 12 20 318 81 288 341 97 70 125 299 30 15 37 6 281 168 296 70 64 358 219 222 200 237 187 119 76 48 117 97 97 178 121 147 37 104 344 333 115 7 87 94 49 35 44 65 103 125 189 195 188 194 181 156 163 159 155 126 40
331 332 332 334 330 333 332 331 330 324 332 205 63 91 111 118 176 211 107 327 324 265 261 269 317 282 316 256 230 130 94 5 350 330 312 80 317 63 315 82 74 81 333 351 21 23 35 104 274 308 149 95 49 60 74 112 102 41 145 172 104 266 244 293 305 1 2 81 180 164 104 83 49 61 33 82 110 303 282 202 184 183 222 151 205 191 32 64
329 331 332 332 333 330 332 327 324 323 9 30 42 82 73 309 300 259 143 195 282 274 282 341 275 266 297 269 259 121 80 100 305 342 322 47 349 67 177 48 19 349 17 38 115 82 60 311 306 294 81 78 47 36 58 60 65 96 70 52 225 239 123 250 303 5 12 102 172 163 111 109 330 343 75 47 127 156 299 281 178 128 96 302 268 283 154 109
329 331 333 334 332 332 326 327 314 10 40 87 144 100 68 331 306 99 112 223 297 312 216 233 186 220 263 25 193 107 109 284 95 317 321 76 77 196 68 129 49 42 358 24 132 128 171 266 264 62 40 81 84 29 55 52 6 328 128 124 193 263 241 149 224 76 355 33 75 108 63 357 359 87 155 250 296 189 241 246 104 61 78 74 36 28 343 60
329 332 334 334 335 330 325 324 44 356 268 97 238 247 307 324 274 251 119 347 14 295 236 303 143 260 256 18 15 278 251 24 225 236 285 100 173 30 328 133 93 330 113 106 80 74 42 288 41 52 56 53 71 43 35 112 28 323 236 174 232 228 198 266 16 88 26 5 3 100 56 266 289 283 231 291 355 154 253 131 96 113 87 81 76 310 14 32
330 331 333 336 336 334 319 5 333 349 10 122 129 292 296 309 320 197 98 75 333 270 352 214 213 5 100 293 27 108 63 32 259 268 109 306 133 123 54 13 81 10 150 142 124 142 140 336 84 119 90 68 67 97 242 107 148 80 312 177 230 214 165 148 110 84 11 168 292 354 170 257 329 177 167 328 332 60 28 95 124 87 75 82 351 7 4 350
330 331 332 335 340 342 5 341 296 309 32 336 295 322 335 305 328 144 30 4 39 282 307 249 40 287 84 272 139 71 57 263 305 15 36 353 58 2 97 300 16 25 51 155 41 54 48 4 45 31 63 73 68 46 337 124 86 332 273 73 81 90 152 190 156 145 168 216 326 37 83 155 198 245 271 301 51 64 49 31 72 77 84 101 80 24 347 8
327 329 331 333 335 341 211 322 348 21 223 307 313 323 316 311 126 48 81 72 283 291 19 320 208 282 36 323 57 119 196 279 50 273 62 329 75 8 83 177 124 357 321 67 154 254 134 64 88 77 70 72 82 213 276 172 177 231 315 112 91 181 221 123 107 105 130 109 283 343 351 71 266 270 307 333 80 39 34 30 66 88 93 94 61 14 84 148
326 327 330 332 330 336 155 184 32 244 255 293 313 318 321 53 91 105 110 108 255 7 209 83 273 64 327 337 31 359 355 14 135 255 318 25 34 154 62 222 137 156 46 133 150 220 284 150 202 137 108 69 239 232 195 138 25 282 176 76 89 74 65 83 100 99 16 81 246 306 4 151 287 288 353 344 89 59 28 15 69 101 110 99 102 109 123 69
324 323 326 332 333 94 332 359 222 245 298 303 304 313 35 54 36 41 21 8 24 322 288 267 21 290 39 60 345 357 70 335 72 323 40 98 338 33 55 133 109 58 27 16 69 197 310 321 158 69 96 212 166 235 141 100 251 192 67 53 9 41 27 39 66 94 61 20 264 246 4 145 295 287 239 74 224 309 311 320 15 81 78 74 171 167 100 65
322 318 321 334 317 269 318 303 256 248 271 294 304 37 75 43 106 99 104 230 134 256 345 4 331 11 27 21 10 327 50 350 349 25 3 8 356 35 26 66 39 55 38 16 20 335 4 356 41 291 6 76 113 120 63 31 42 93 32 91 54 346 8 32 347 36 86 287 258 283 195 170 155 297 301 255 282 244 246 308 147 111 102 149 50 39 33 29
318 317 316 321 212 154 173 274 226 282 307 311 28 65 81 278 10 77 201 324 48 294 56 293 314 29 355 333 63 357 350 351 5 37 60 32 39 35 353 119 80 44 356 327 359 350 38 37 284 316 291 75 38 88 299 7 26 50 62 33 92 264 34 317 9 350 155 156 170 15 181 42 219 214 278 260 259 285 17 148 115 110 93 11 9 354 357 342
319 316 316 286 181 185 244 271 343 337 322 9 67 48 60 92 65 266 314 313 262 210 324 121 264 5 74 62 350 329 336 74 324 41 94 15 93 16 229 37 160 133 104 282 352 27 270 286 3 334 15 24 91 83 335 17 334 31 63 103 69 54 44 271 277 232 303 305 251 347 319 154 259 281 236 194 226 212 96 83 59 52 2 311 304 309 259 266
317 316 320 189 190 220 248 261 293 330 345 29 77 35 51 63 286 215 290 243 275 4 347 12 343 6 50 82 334 9 31 4 68 319 59 359 48 62 326 330 21 13 76 130 109 192 47 348 319 2 22 327 69 134 177 168 77 176 158 118 160 148 150 228 229 219 215 206 280 287 115 267 45 256 227 205 187 130 91 85 77 89 255 272 271 268 245 274
314 303 256 292 257 246 239 255 264 227 50 63 53 80 102 224 229 246 280 303 290 315 138 349 71 56 347 15 320 15 120 348 33 56 19 66 13 134 328 310 347 107 107 83 276 63 169 207 257 264 247 13 85 265 114 94 52 333 147 94 63 298 153 89 217 156 260 327 355 350 208 346 183 255 239 158 78 104 152 145 229 273 286 298 207 197 203 302
325 324 329 313 342 283 190 221 151 127 38 57 73 47 86 180 42 179 258 188 301 2 302 7 61 59 306 329 316 37 334 90 338 78 353 57 203 98 246 225 275 134 134 123 194 144 29 50 308 325 11 72 15 150 340 94 27 271 51 46 228 170 105 87 91 57 61 50 306 275 320 314 335 352 27 208 97 119 111 100 333 293 296 301 238 253 295 276
358 332 36 329 335 331 216 152 122 64 60 86 91 67 205 279 201 169 251 293 261 216 59 121 316 75 349 324 277 342 323 55 24 82 286 305 334 240 283 298 181 64 188 135 294 176 142 238 296 75 54 57 101 94 88 25 136 68 54 243 128 104 119 123 210 351 59 136 254 8 222 261 88 278 339 140 161 185 172 228 272 277 284 204 232 261 257 252
338 341 252 281 287 314 174 135 340 30 77 79 68 160 271 71 160 189 252 18 8 37 92 97 290 94 245 82 338 342 324 84 304 54 146 14 198 212 75 209 288 126 292 230 114 317 99 37 296 299 225 280 347 36 350 352 29 123 163 204 93 293 347 319 89 353 329 309 289 302 265 249 183 237 175 186 178 188 202 249 263 229 230 219 240 266 269 272
253 32 31 283 330 4 14 102 64 62 60 60 322 53 271 239 259 226 257 168 127 117 82 226 137 335 134 113 238 311 339 59 318 79 95 296 108 171 259 177 307 86 353 149 67 204 54 146 293 296 186 316 5 65 64 294 339 26 58 25 349 97 145 39 148 174 113 233 24 293 334 254 208 211 187 194 195 189 205 227 220 219 225 232 251 250 226 212
25 42 317 267 327 358 349 72 55 44 63 81 226 216 228 263 281 279 301 167 290 101 239 125 168 102 25 210 145 71 338 112 130 247 97 250 64 298 201 343 175 343 28 69 127 241 88 102 154 278 312 24 60 1 173 154 49 347 27 341 3 36 244 104 58 83 142 174 174 202 309 277 266 215 172 199 196 197 189 199 213 225 244 252 240 228 219 222
335 104 268 284 341 326 52 44 47 37 89 238 140 238 326 277 332 293 331 34 170 290 177 174 158 137 204 88 307 238 324 50 66 77 178 301 141 318 250 181 172 165 356 24 59 51 81 35 182 317 21 322 234 250 206 172 162 153 151 152 168 100 47 63 267 18 69 93 225 113 249 268 270 269 211 192 199 190 208 196 205 233 254 258 252 235 224 230
73 20 275 307 345 15 74 48 15 163 97 87 12 190 325 30 14 308 334 343 75 43 36 107 183 123 131 146 166 190 119 39 352 80 274 147 243 135 301 154 159 149 114 238 143 226 145 145 91 87 177 182 246 321 302 201 114 143 115 143 124 99 101 96 97 282 24 54 113 153 100 281 242 254 255 211 186 195 192 172 215 243 246 251 245 234 241 232
58 186 268 351 338 65 60 60 288 38 40 245 304 285 241 359 171 272 14 356 19 59 21 45 259 64 239 168 227 118 155 124 157 329 210 244 253 204 231 146 162 72 81 319 29 282 109 61 54 308 319 302 328 301 19 68 117 75 38 82 109 349 156 167 171 184 130 347 23 333 242 251 286 346 351 312 195 174 206 177 207 247 254 250 240 234 237 245
156 282 326 310 19 78 77 109 6 318 302 319 35 273 274 204 54 1 12 330 90 343 67 309 6 116 316 95 116 170 195 71 241 138 352 200 292 219 225 170 196 101 110 242 127 253 64 294 116 50 359 338 341 348 357 335 56 93 172 344 98 81 68 141 107 34 87 227 168 115 252 287 276 351 335 24 36 192 231 245 181 224 255 246 234 234 236 243
138 276 226 302 354 54 102 187 136 192 305 339 341 9 346 6 213 207 165 323 356 156 69 343 227 235 18 86 65 83 357 122 303 284 216 212 250 339 307 177 270 102 178 205 162 113 83 175 100 117 139 215 283 307 269 274 246 251 111 89 322 122 132 111 146 16 80 271 123 151 254 256 276 324 344 331 354 267 265 250 247 210 225 234 228 228 235 247
30 133 306 340 10 27 64 54 98 134 50 356 36 305 82 347 331 310 132 272 162 294 137 236 359 82 43 37 18 6 8 345 94 246 116 297 292 332 96 309 207 184 235 136 100 75 136 100 102 154 147 191 209 213 248 107 51 301 258 176 207 51 90 96 104 93 234 200 196 232 189 301 275 268 281 246 235 223 231 245 236 237 245 242 225 224 231 239
168 78 7 337 348 39 65 10 21 48 40 151 83 321 329 271 270 324 89 89 4 97 26 60 322 43 317 65 333 355 296 279 352 120 226 191 257 246 307 169 298 202 205 116 74 86 74 79 214 149 201 203 196 211 214 191 200 236 161 268 175 156 158 127 159 239 167 85 307 264 198 167 257 252 249 262 263 266 253 243 250 261 248 222 211 222 248 275
64 226 114 198 130 290 32 339 18 10 357 50 246 13 259 351 3 12 329 68 318 20 98 332 37 47 139 155 133 88 335 5 357 193 349 240 349 332 16 352 59 309 19 57 20 120 138 149 249 125 257 235 215 232 192 167 213 205 196 174 183 187 149 173 233 189 133 172 215 244 165 191 255 227 220 209 206 211 217 222 220 222 218 204 188 208 235 247
123 178 171 271 133 248 163 243 279 97 57 24 256 25 3 40 337 242 184 322 21 341 54 340 299 291 329 158 117 200 172 33 312 307 183 240 194 3 4 330 293 23 75 48 24 145 91 275 215 145 289 320 302 259 229 200 263 268 234 221 198 160 199 199 204 221 188 201 219 194 190 233 247 254 225 230 216 220 243 262 64 186 201 186 190 216 226 240
333 102 308 3 83 88 310 22 73 62 49 332 73 326 79 299 281 324 335 144 337 313 344 101 278 285 276 126 125 17 228 179 185 247 251 141 328 145 231 187 180 360 59 122 125 328 115 273 117 74 43 297 298 329 95 262 182 260 287 344 206 181 110 72 110 299 333 302 237 205 265 282 261 227 247 276 312 242 302 213 205 212 194 187 197 218 230 239
199 154 148 112 75 316 351 22 42 80 64 343 69 294 34 308 279 255 261 231 192 227 208 220 235 88 44 80 136 234 236 179 186 209 200 163 261 226 144 284 162 154 42 97 53 100 57 258 56 78 15 305 341 17 343 30 34 250 266 287 137 136 172 214 187 204 155 206 115 120 302 266 270 254 252 276 305 183 213 219 221 220 209 195 204 222 232 241
80 338 71 99 91 318 39 358 26 61 27 230 154 265 147 282 286 262 325 308 297 252 192 206 213 109 333 14 290 255 230 189 210 226 214 220 232 228 214 205 165 160 207 161 182 156 162 130 169 71 220 264 267 8 329 11 10 341 308 224 188 224 219 212 269 214 216 139 122 163 233 217 230 167 146 233 185 236 249 231 223 235 224 206 212 221 228 239